Flag for United Kingdom

Past Weather in Swindon, England, United Kingdom — Yesterday and Last 2 Weeks

Now
48 °F

Clear.


Feels Like: 45 °F
Forecast: N/A
Wind: 7 mph from Southwest

Location: Brize Norton
Current Time: Oct 25, 2020 at 3:16:39 am
Latest Report: Oct 25, 2020 at 1:50 am
Visibility: 10 mi
Pressure29.39 "Hg
Humidity: 87%
Dew Point: 45 °F
Location of SwindonLocation

Past Weather in Swindon — Graph

°F

Swindon Temperature Yesterday

Maximum temperature yesterday: 59 °F (at 2:20 pm)
Minimum temperature yesterday: 41 °F (at 12:50 am)
Average temperature yesterday: 53 °F

High & Low Weather Summary for the Past Weeks

 TemperatureHumidityPressure
High63 °F (Oct 20, 11:50 am)100% (Oct 12, 3:50 pm)30.33 "Hg (Oct 12, 3:50 pm)
Low39 °F (Oct 10, 2:20 am)51% (Oct 19, 1:21 pm)29.27 "Hg (Oct 21, 10:20 am)
Average51 °F83%29.95 "Hg
* Reported Oct 10 2:20 am — Oct 25 1:50 am, Swindon. Weather by CustomWeather, © 2020

Note: Actual official high and low records may vary slightly from our data, if they occured in-between our weather recording intervals... More about our weather records

Swindon Weather History for the Previous 24 Hours

Scroll right to see more
 ConditionsComfort  
Time TempWeatherWind HumidityBarometerVisibility
1:50 am
Sun, Oct 25
48 °FClear.7 mph87%29.39 "Hg10 mi
1:20 am48 °FPassing clouds.7 mph87%29.39 "HgN/A
1:50 am48 °FPassing clouds.7 mph94%29.39 "HgN/A
12:50 am50 °FPassing clouds.7 mph88%29.36 "HgN/A
12:20 am48 °FPassing clouds.5 mph94%29.36 "HgN/A
11:50 pm
Sat, Oct 24
50 °FPassing clouds.6 mph88%29.36 "HgN/A
11:20 pm52 °FPartly cloudy.7 mph82%29.36 "HgN/A
10:50 pm52 °FRain. Passing clouds.7 mph88%29.33 "HgN/A
10:20 pm52 °FRain. Partly cloudy.8 mph88%29.36 "HgN/A
9:50 pm52 °FPassing clouds.6 mph88%29.33 "HgN/A
9:20 pm52 °FLight rain. Partly cloudy.6 mph94%29.33 "HgN/A
8:50 pm52 °FLight rain. Passing clouds.7 mph94%29.30 "HgN/A
8:20 pm54 °FRain. Partly cloudy.8 mph88%29.33 "Hg3 mi
7:50 pm54 °FRain. Partly cloudy.12 mph94%29.33 "Hg4 mi
6:50 pm55 °FLight rain. Overcast.12 mph82%29.33 "HgN/A
6:20 pm55 °FLight rain. Overcast.14 mph82%29.33 "HgN/A
5:50 pm55 °FLight rain. Overcast.15 mph82%29.36 "HgN/A
5:21 pm57 °FMore clouds than sun.14 mph77%29.36 "HgN/A
4:50 pm57 °FLight rain. Broken clouds.13 mph82%29.36 "HgN/A
4:20 pm59 °FLight rain. Broken clouds.15 mph88%29.36 "HgN/A
4:14 pm59 °FLight rain. Broken clouds.17 mph88%29.36 "HgN/A
3:50 pm59 °FHeavy rain. Cloudy.18 mph88%29.39 "Hg2 mi
3:20 pm59 °FDrizzle. Mostly cloudy.18 mph82%29.39 "HgN/A
2:50 pm59 °FDrizzle. Mostly cloudy.15 mph88%29.42 "HgN/A
2:20 pm59 °FMostly cloudy.16 mph88%29.42 "HgN/A
1:50 pm57 °FDrizzle. Mostly cloudy.13 mph94%29.45 "Hg5 mi
1:20 pm57 °FDrizzle. Mostly cloudy.14 mph88%29.47 "HgN/A
12:50 pm57 °FMostly cloudy.16 mph88%29.50 "HgN/A
12:20 pm57 °FMostly cloudy.14 mph88%29.50 "HgN/A
11:50 am57 °FMostly cloudy.16 mph82%29.53 "HgN/A
11:20 am57 °FMostly cloudy.16 mph82%29.53 "HgN/A
10:50 am57 °FMostly cloudy.17 mph82%29.53 "HgN/A
10:20 am55 °FMostly cloudy.15 mph82%29.56 "HgN/A
9:50 am55 °FMostly cloudy.14 mph82%29.56 "HgN/A
9:20 am54 °FCloudy.12 mph88%29.59 "HgN/A
8:50 am54 °FPartly sunny.9 mph88%29.59 "HgN/A
8:20 am52 °FDrizzle. Mostly cloudy.12 mph94%29.62 "Hg3 mi
6:50 am52 °FPassing clouds.12 mph77%29.62 "HgN/A
6:20 am50 °FPassing clouds.10 mph82%29.65 "HgN/A
5:50 am50 °FPassing clouds.13 mph76%29.65 "HgN/A
5:20 am50 °FClear.10 mph82%29.68 "Hg10 mi
4:50 am48 °FClear.7 mph87%29.68 "Hg10 mi
4:20 am46 °FClear.7 mph87%29.71 "Hg10 mi
3:50 am46 °FPassing clouds.6 mph82%29.71 "HgN/A
3:20 am46 °FPassing clouds.8 mph87%29.74 "HgN/A
Weather by CustomWeather, © 2020

See weather overview